星链-37190(STARLINK-37190)

导读

STARLINK-37190(NORAD编号68396)是美国SpaceX公司星链(Starlink)星座中的一颗低轨互联网通信卫星,属于星链卫星组网的组成部分,运行在近地轨道为全球提供宽带互联网服务。星链卫星普遍配备相控阵天线、光学激光星间链路,采用氩气离子推进系统,可实现轨道机动与脱轨操作。该卫星作为批量生产的星链卫星之一,承担着增强星座网络覆盖、提升通信容量的任务,助力星链实现全球互联的目标,目前相关公开信息较少,整体状态需结合SpaceX后续披露信息确认。

Basic Information
目录编号:
68396
目录名称:
STARLINK-37190
国际标识:
2026-063S
轨道中心:
EARTH
卫星名称:
星链-37190
卫星全名:
星链-37190(STARLINK-37190)
卫星状态:
在轨 (已飞行171 天)
发射日期:
2026-03-26 UTC
国别 :
美国 (US)
星等 :
--
This satellite is enrolled in the Space Conjunction Data Service (SCDS) and the current flight risk assessment level is: No High Risk
Orbit Information
数据来源 国际轨道数据
星历时间: 2026-09-13T06:30:54+0800
14小时前
查看轨道信息
半长轴: 6843.677km
偏心率: 0.0001758
轨道倾角: 97.285°
近地点辐角 74.920°
升交点赤经 36.965°
平近点角 285.224°
近地点: 464.336km
远地点: 466.744km
周期: 93.906分钟
每日圈数: 15.334464
Detailed Information
固有亮度:
5
最大亮度:
2.5
卫星平台:
Starlink V1.0
覆盖范围:
全球
运营商:
太空探索技术公司
运营商所在国:
美国
制造商(研发单位):
太空探索技术公司
制造商所在国:
美国
使用方式:
暂无
Satellite Introduction
Starlink 计划是 SpaceX 推出的全球卫星互联网项目,通过发射低轨道卫星,为全球尤其是偏远地区提供高速、低延迟的互联网服务。自 2019 年起,Starlink 已部署数千颗卫星,旨在缩小全球数字鸿沟,推动互联网普及。该项目还为军事、航空等行业提供通信支持,带来广泛经济效益。
2D Orbit Map
3D Orbit Map
Orbit Altitude Analysis Chart
Orbit Inclination Analysis Chart
Orbit Comprehensive Analysis Chart
View Comprehensive Chart
Conjunction Data List
Event ID Objects TCA Miss Dist (km) Collision Risk Probability Collision Risk Index (CRI) Action
CDM_260915-172606-581306-839621
2026-09-15T
17:26:18+0000
0.662 km
远距离
7.436956E-5 中风险 0.72
CDM_260915-194706-581306-839621
2026-09-15T
19:47:14+0000
0.863 km
远距离
3.240088E-5 中风险 0.65
CDM_260914-023004-840606-839621
2026-09-14T
02:30:40+0000
1.855 km
极远距离
3.378497E-6 低风险 0.46
CDM_260915-212106-581306-839621
2026-09-15T
21:21:12+0000
1.778 km
极远距离
2.936681E-6 低风险 0.44
CDM_260915-155206-581306-839621
2026-09-15T
15:52:20+0000
2.216 km
极远距离
1.690655E-6 低风险 0.4
CDM_260914-124206-567806-839621
2026-09-14T
12:42:51+0000
2.594 km
极远距离
1.615035E-6 低风险 0.39
CDM_260915-190006-581306-839621
2026-09-15T
19:00:16+0000
2.937 km
极远距离
1.058439E-6 低风险 0.35
Miss Distance Evolution Trend with All Objects
Collision Probability Evolution Trend with All Objects